Weather History for Freeport, IL

Change the Weather History Date:

Saturday, August 2, 2014

  Actual Average Record
Temperature  
Mean Temperature 67 °F -  
Max Temperature 80 °F 83 °F 100 °F (1988)
Min Temperature 54 °F 60 °F 48 °F (1985)
Cooling Degree Days 2    
Growing Degree Days 17 (Base 50)    
Moisture  
Dew Point 61 °F    
Average Humidity 80    
Maximum Humidity 95    
Minimum Humidity 56    
Precipitation  
Precipitation 0.00 in - - ()
Sea Level Pressure  
Sea Level Pressure 30.16 in    
Wind  
Wind Speed 2 mph (SW)    
Max Wind Speed 7 mph    
Max Gust Speed -    
Visibility 9 miles    
Events      
Averages and records for this station are not official NWS values.
T = Trace of Precipitation, MM = Missing Value Source: NWS Daily Summary

Daily Weather History Graph

Daily Weather History Graph

Search for Another Location

Airport:

Trip Planner

Search our weather history database for the weather conditions in past years. The results will help you decide how hot, cold, wet, or windy it might be!

Date:

Astronomy

Aug. 02, 2014 Rise Set
Actual Time 5:52 AM CDT 8:16 PM CDT
Civil Twilight 5:20 AM CDT 8:47 PM CDT
Nautical Twilight 4:41 AM CDT 9:26 PM CDT
Astronomical Twilight 3:57 AM CDT 10:10 PM CDT
Moon 12:21 PM CDT (8/2) 11:26 PM CDT (8/2)
Length of Visible Light 15h 27m
Length of Day
14h 24m
Waxing Crescent, 37% of the Moon is Illuminated
Aug 2
Waxing Crescent
Aug 3
First Quarter
Aug 10
Full
Aug 17
Last Quarter
Aug 25
New

Hourly Weather History & Observations

Time (CDT) Temp. Heat Index Dew Point Humidity Pressure Visibility Wind Dir Wind Speed Gust Speed Precip Events Conditions
12:15 AM 59.0 °F - 57.2 °F 94% 30.13 in 10.0 mi Calm Calm - N/A   Clear
12:35 AM 58.6 °F - 56.3 °F 92% 30.12 in 10.0 mi Calm Calm - N/A   Clear
12:55 AM 60.8 °F - 57.2 °F 88% 30.12 in 10.0 mi West 3.5 mph - N/A   Clear
1:15 AM 57.4 °F - 55.0 °F 92% 30.12 in 10.0 mi Calm Calm - N/A   Clear
1:35 AM 57.4 °F - 55.6 °F 94% 30.11 in 10.0 mi Calm Calm - N/A   Clear
1:55 AM 57.4 °F - 55.8 °F 94% 30.12 in 5.0 mi Calm Calm - N/A   Clear
2:15 AM 57.4 °F - 55.8 °F 94% 30.12 in 7.0 mi West 4.6 mph - N/A   Clear
2:35 AM 57.7 °F - 55.8 °F 93% 30.12 in 10.0 mi Calm Calm - N/A   Clear
2:55 AM 55.0 °F - 53.2 °F 94% 30.13 in 5.0 mi WNW 3.5 mph - N/A   Clear
3:35 AM 54.9 °F - 53.4 °F 95% 30.14 in 7.0 mi Calm Calm - N/A   Clear
3:55 AM 55.4 °F - 53.6 °F 94% 30.14 in 7.0 mi Calm Calm - N/A   Clear
4:15 AM 54.5 °F - 52.9 °F 94% 30.14 in 7.0 mi Calm Calm - N/A   Clear
4:35 AM 54.5 °F - 53.1 °F 95% 30.16 in 7.0 mi SE 6.9 mph - N/A   Clear
4:55 AM 54.9 °F - 53.2 °F 94% 30.16 in 7.0 mi Calm Calm - N/A   Clear
5:15 AM 54.9 °F - 53.2 °F 94% 30.16 in 7.0 mi Calm Calm - N/A   Clear
5:35 AM 54.9 °F - 53.2 °F 94% 30.17 in 7.0 mi Calm Calm - N/A   Clear
5:55 AM 54.9 °F - 53.2 °F 94% 30.17 in 7.0 mi Calm Calm - N/A   Clear
6:15 AM 54.3 °F - 52.7 °F 94% 30.17 in 7.0 mi Calm Calm - N/A   Clear
6:35 AM 54.9 °F - 53.1 °F 94% 30.18 in 7.0 mi Calm Calm - N/A   Clear
6:55 AM 54.9 °F - 53.2 °F 94% 30.18 in 7.0 mi Calm Calm - N/A   Clear
7:15 AM 57.4 °F - 55.8 °F 94% 30.18 in 7.0 mi Calm Calm - N/A   Clear
7:35 AM 58.8 °F - 57.0 °F 94% 30.19 in 7.0 mi Calm Calm - N/A   Clear
7:55 AM 59.9 °F - 57.9 °F 93% 30.19 in 7.0 mi Calm Calm - N/A   Clear
8:15 AM 62.6 °F - 59.9 °F 91% 30.19 in 10.0 mi Calm Calm - N/A   Clear
8:35 AM 63.0 °F - 60.1 °F 90% 30.20 in 10.0 mi East 3.5 mph - N/A   Clear
8:55 AM 64.6 °F - 61.2 °F 89% 30.20 in 10.0 mi Calm Calm - N/A   Clear
9:15 AM 65.3 °F - 61.2 °F 86% 30.20 in 10.0 mi Calm Calm - N/A   Clear
9:35 AM 67.6 °F - 62.8 °F 84% 30.20 in 10.0 mi Calm Calm - N/A   Clear
9:55 AM 69.4 °F - 64.4 °F 84% 30.20 in 10.0 mi Calm Calm - N/A   Clear
10:15 AM 72.7 °F - 66.7 °F 82% 30.20 in 10.0 mi ENE 3.5 mph - N/A   Clear
10:35 AM 72.7 °F - 65.7 °F 79% 30.20 in 10.0 mi Calm Calm - N/A   Clear
10:55 AM 72.7 °F - 64.4 °F 75% 30.20 in 10.0 mi Calm Calm - N/A   Clear
11:15 AM 72.7 °F - 63.9 °F 74% 30.19 in 10.0 mi Calm Calm - N/A   Clear
11:35 AM 73.9 °F - 65.3 °F 74% 30.19 in 10.0 mi ESE 3.5 mph - N/A   Clear
11:55 AM 77.0 °F - 66.2 °F 69% 30.19 in 10.0 mi ENE 3.5 mph - N/A   Clear
12:15 PM 77.9 °F - 66.4 °F 68% 30.19 in 10.0 mi Calm Calm - N/A   Clear
12:35 PM 77.9 °F - 65.8 °F 66% 30.19 in 10.0 mi Calm Calm - N/A   Clear
12:55 PM 77.9 °F - 63.5 °F 61% 30.19 in 10.0 mi Calm Calm - N/A   Clear
1:15 PM 78.1 °F - 63.1 °F 60% 30.19 in 10.0 mi NNE 3.5 mph - N/A   Clear
1:35 PM 78.8 °F - 64.4 °F 61% 30.18 in 10.0 mi ESE 3.5 mph - N/A   Clear
1:55 PM 79.3 °F - 65.3 °F 62% 30.18 in 10.0 mi South 4.6 mph - N/A   Clear
2:15 PM 78.3 °F - 63.7 °F 61% 30.17 in 10.0 mi Calm Calm - N/A   Clear
2:35 PM 80.2 °F 81.6 °F 63.3 °F 56% 30.17 in 10.0 mi West 4.6 mph - N/A   Clear
2:55 PM 80.2 °F 81.9 °F 64.0 °F 58% 30.16 in 10.0 mi SW 3.5 mph - N/A   Clear
3:15 PM 80.2 °F 81.6 °F 63.3 °F 56% 30.16 in 10.0 mi WSW 4.6 mph - N/A   Clear
3:35 PM 80.2 °F 81.8 °F 63.5 °F 57% 30.16 in 10.0 mi Calm Calm - N/A   Clear
3:55 PM 80.2 °F 81.6 °F 63.1 °F 56% 30.15 in 10.0 mi WSW 4.6 mph - N/A   Clear
4:15 PM 80.2 °F 81.9 °F 64.0 °F 58% 30.14 in 10.0 mi West 3.5 mph - N/A   Clear
4:35 PM 80.2 °F 81.9 °F 64.0 °F 58% 30.14 in 10.0 mi SW 5.8 mph - N/A   Clear
4:55 PM 80.2 °F 81.9 °F 64.4 °F 58% 30.14 in 10.0 mi SW 4.6 mph - N/A   Clear
5:15 PM 80.2 °F 82.0 °F 64.9 °F 59% 30.14 in 10.0 mi WSW 5.8 mph - N/A   Clear
5:35 PM 80.2 °F 82.0 °F 64.6 °F 59% 30.14 in 10.0 mi WSW 5.8 mph - N/A   Clear
5:55 PM 80.2 °F 82.1 °F 65.1 °F 60% 30.14 in 10.0 mi SW 3.5 mph - N/A   Clear
6:15 PM 80.6 °F 82.7 °F 66.2 °F 61% 30.13 in 10.0 mi SW 5.8 mph - N/A   Clear
6:35 PM 80.2 °F 82.5 °F 66.7 °F 63% 30.13 in 10.0 mi SW 3.5 mph - N/A   Clear
6:55 PM 77.9 °F - 65.8 °F 66% 30.13 in 10.0 mi SW 3.5 mph - N/A   Clear
7:15 PM 77.9 °F - 68.0 °F 71% 30.13 in 10.0 mi SW 3.5 mph - N/A   Clear
7:35 PM 77.9 °F - 68.7 °F 73% 30.13 in 10.0 mi Calm Calm - N/A   Scattered Clouds
7:55 PM 75.2 °F - 68.4 °F 79% 30.14 in 10.0 mi Calm Calm - N/A   Scattered Clouds
8:15 PM 72.7 °F - 68.0 °F 85% 30.14 in 10.0 mi SSW 3.5 mph - N/A   Clear
8:35 PM 70.2 °F - 67.1 °F 90% 30.14 in 10.0 mi Calm Calm - N/A   Clear
8:55 PM 67.8 °F - 65.3 °F 92% 30.14 in 10.0 mi SW 3.5 mph - N/A   Clear
9:15 PM 67.6 °F - 64.9 °F 91% 30.14 in 10.0 mi SSW 5.8 mph - N/A   Clear
9:35 PM 67.5 °F - 65.1 °F 92% 30.15 in 10.0 mi SW 4.6 mph - N/A   Clear
9:55 PM 67.3 °F - 64.0 °F 89% 30.15 in 10.0 mi SSW 4.6 mph - N/A   Clear
10:15 PM 67.6 °F - 64.0 °F 88% 30.15 in 10.0 mi SSW 4.6 mph - N/A   Clear
10:35 PM 67.6 °F - 63.5 °F 87% 30.15 in 10.0 mi SW 4.6 mph - N/A   Clear
10:55 PM 67.6 °F - 64.0 °F 88% 30.15 in 10.0 mi SW 4.6 mph - N/A   Clear
11:15 PM 67.6 °F - 64.0 °F 88% 30.16 in 10.0 mi SW 4.6 mph - N/A   Clear
11:35 PM 67.6 °F - 63.7 °F 87% 30.16 in 10.0 mi SW 5.8 mph - N/A   Clear
11:55 PM 65.7 °F - 62.4 °F 89% 30.16 in 10.0 mi SW 4.6 mph - N/A   Clear